EW9665 Weather Reports


time (UTC)temp
C
wind
direction
speed
KPH
gust
KPH
rain 1hr
cm
rain 24hr
cm
rain mn
cm
humidity
%
barometer
mb
20260507151532 14 0 0.0 3.2 0.00 0.00 0.00 61 1017.5
20260507151015 14 0 0.0 3.2 0.00 0.00 0.00 62 1017.5
20260507150516 14 0 0.0 3.2 0.00 0.00 0.00 66 1017.5
20260507150029 14 0 0.0 3.2 0.00 0.00 0.00 61 1017.4
20260507145516 14 0 0.0 4.8 0.00 0.00 0.00 62 1017.5
20260507145016 14 0 0.0 4.8 0.00 0.00 0.00 61 1017.4
20260507144533 14 87 1.6 4.8 0.00 0.00 0.00 62 1017.4
20260507144016 14 0 0.0 4.8 0.00 0.00 0.00 61 1017.5
20260507143517 14 0 0.0 4.8 0.00 0.00 0.00 61 1017.4
20260507143055 14 0 3.2 4.8 0.00 0.00 0.00 62 1017.3
20260507142515 14 66 0.0 4.8 0.00 0.00 0.00 61 1017.3
20260507142017 14 0 0.0 6.4 0.00 0.00 0.00 64 1017.4
20260507141543 14 0 1.6 8.0 0.00 0.00 0.00 63 1017.6
20260507141014 14 0 0.0 8.0 0.00 0.00 0.00 60 1017.6
20260507140517 14 0 0.0 6.4 0.00 0.00 0.00 63 1017.5
20260507140035 14 0 0.0 6.4 0.00 0.00 0.00 64 1017.6
20260507135517 13 95 1.6 11.3 0.00 0.00 0.00 64 1017.6
20260507135015 13 97 6.4 11.3 0.00 0.00 0.00 62 1017.6
20260507134532 14 85 0.0 6.4 0.00 0.00 0.00 66 1017.7
20260507134015 13 0 3.2 9.7 0.00 0.00 0.00 64 1017.7
20260507133516 13 55 3.2 9.7 0.00 0.00 0.00 64 1017.7
20260507133034 13 99 0.0 9.7 0.00 0.00 0.00 63 1017.7
20260507132516 13 97 3.2 9.7 0.00 0.00 0.00 65 1017.8
20260507132014 13 85 4.8 9.7 0.00 0.00 0.00 63 1017.7
20260507131537 13 66 4.8 8.0 0.00 0.00 0.00 63 1017.7
20260507131019 13 116 3.2 11.3 0.00 0.00 0.00 64 1017.7
20260507130516 14 118 4.8 12.9 0.00 0.00 0.00 65 1017.5
20260507130040 14 95 6.4 12.9 0.00 0.00 0.00 64 1017.6
20260507125518 15 353 0.0 8.0 0.00 0.00 0.00 62 1017.6
20260507125014 15 351 1.6 14.5 0.00 0.00 0.00 65 1017.6
20260507124531 14 91 1.6 14.5 0.00 0.00 0.00 62 1017.6
20260507124015 15 106 4.8 14.5 0.00 0.00 0.00 66 1017.5
20260507123517 15 21 1.6 12.9 0.00 0.00 0.00 66 1017.5
20260507123030 14 84 4.8 12.9 0.00 0.00 0.00 65 1017.5
20260507122516 13 65 4.8 12.9 0.00 0.00 0.00 65 1017.6
20260507122014 13 68 6.4 16.1 0.00 0.00 0.00 68 1017.7
20260507121530 13 0 3.2 16.1 0.00 0.00 0.00 70 1017.7
20260507121016 13 128 0.0 11.3 0.00 0.00 0.00 68 1017.7
20260507120516 13 99 4.8 11.3 0.00 0.00 0.00 67 1017.7
20260507120029 13 101 1.6 6.4 0.00 0.00 0.00 69 1017.7
20260507115514 13 49 0.0 11.3 0.00 0.00 0.00 70 1017.7
20260507115016 13 113 3.2 11.3 0.00 0.00 0.00 69 1017.6
20260507114531 13 101 4.8 9.7 0.00 0.00 0.00 69 1017.6
20260507114014 13 98 4.8 11.3 0.00 0.00 0.00 69 1017.6
20260507113521 13 81 6.4 11.3 0.00 0.00 0.00 69 1017.5
20260507113031 13 106 4.8 11.3 0.00 0.00 0.00 69 1017.6
20260507112515 13 100 6.4 11.3 0.00 0.00 0.00 70 1017.5
20260507112016 13 95 4.8 9.7 0.00 0.00 0.00 68 1017.6
20260507111533 13 95 3.2 6.4 0.00 0.00 0.00 68 1017.7
20260507111015 13 0 3.2 9.7 0.00 0.00 0.00 69 1017.7
20260507110515 13 0 3.2 11.3 0.00 0.00 0.00 68 1017.7
20260507110031 13 51 4.8 11.3 0.00 0.00 0.00 66 1017.6
20260507105516 14 58 1.6 9.7 0.00 0.00 0.00 68 1017.7
20260507105016 14 180 0.0 3.2 0.00 0.00 0.00 68 1017.6
20260507104531 13 0 0.0 4.8 0.00 0.00 0.00 68 1017.5
20260507104016 13 0 0.0 6.4 0.00 0.00 0.00 68 1017.6
20260507103516 13 0 0.0 11.3 0.00 0.00 0.00 67 1017.7
20260507103032 13 74 3.2 11.3 0.00 0.00 0.00 67 1017.7
20260507102516 13 0 0.0 11.3 0.00 0.00 0.00 69 1017.7
20260507102016 13 353 3.2 11.3 0.00 0.00 0.00 69 1017.7
20260507101534 13 2 3.2 11.3 0.00 0.00 0.00 70 1017.7
20260507101015 13 81 4.8 11.3 0.00 0.00 0.00 73 1017.7
20260507100515 13 81 4.8 11.3 0.00 0.00 0.00 74 1017.6
20260507100038 12 0 0.0 11.3 0.00 0.00 0.00 73 1017.7
20260507095516 12 102 3.2 9.7 0.00 0.00 0.00 74 1017.6
20260507095017 12 64 3.2 9.7 0.00 0.00 0.00 74 1017.7
20260507094533 12 296 1.6 11.3 0.00 0.00 0.00 76 1017.6
20260507094018 12 14 1.6 11.3 0.00 0.00 0.00 76 1017.5
20260507093514 12 62 4.8 9.7 0.00 0.00 0.00 76 1017.5
20260507093030 12 322 0.0 11.3 0.00 0.00 0.00 78 1017.5
20260507092515 12 0 1.6 11.3 0.00 0.00 0.00 77 1017.5
20260507092021 12 37 0.0 11.3 0.00 0.00 0.00 77 1017.5
20260507091535 11 25 3.2 11.3 0.00 0.00 0.00 78 1017.5
20260507091018 11 349 1.6 11.3 0.00 0.00 0.00 78 1017.5
20260507090515 11 77 4.8 11.3 0.00 0.00 0.00 79 1017.5
20260507090038 11 52 4.8 9.7 0.00 0.00 0.00 80 1017.5
20260507085516 11 90 3.2 9.7 0.00 0.00 0.00 81 1017.4
20260507085017 11 0 0.0 11.3 0.00 0.00 0.00 81 1017.4
20260507084534 11 335 4.8 11.3 0.00 0.00 0.00 81 1017.4
20260507084016 11 45 3.2 11.3 0.00 0.00 0.00 83 1017.5
20260507083516 11 56 1.6 11.3 0.00 0.00 0.00 84 1017.5
20260507083032 10 329 1.6 11.3 0.00 0.00 0.00 84 1017.3
20260507082514 10 325 4.8 12.9 0.00 0.00 0.00 84 1017.4
20260507082016 10 55 3.2 12.9 0.00 0.00 0.00 84 1017.3
20260507081531 10 351 4.8 11.3 0.00 0.00 0.00 84 1017.3
20260507081016 10 357 1.6 8.0 0.00 0.00 0.00 85 1017.4
20260507080514 10 0 1.6 8.0 0.00 0.00 0.00 85 1017.2
20260507080034 10 353 1.6 8.0 0.00 0.00 0.00 85 1017.3
20260507075515 10 335 1.6 8.0 0.00 0.03 0.00 85 1017.2
20260507075017 10 0 0.0 6.4 0.00 0.03 0.00 86 1017.2
20260507074534 10 357 1.6 6.4 0.00 0.03 0.00 86 1017.2
20260507074018 9 358 0.0 4.8 0.00 0.03 0.00 87 1017.2
20260507073514 9 358 0.0 3.2 0.00 0.03 0.00 87 1017.1
20260507073033 9 0 0.0 4.8 0.00 0.03 0.00 87 1017.2
20260507072517 9 0 0.0 6.4 0.00 0.03 0.00 87 1017.2
20260507072018 9 73 1.6 6.4 0.00 0.03 0.00 87 1017.1
20260507071534 9 0 0.0 6.4 0.00 0.03 0.00 87 1017.1
20260507071020 9 37 0.0 8.0 0.00 0.03 0.00 88 1017.1
20260507070514 8 334 3.2 8.0 0.00 0.03 0.00 87 1017.0
20260507070036 8 0 0.0 3.2 0.00 0.03 0.00 88 1016.9
20260507065515 8 0 0.0 8.0 0.00 0.05 0.00 88 1017.0
20260507065014 8 337 1.6 8.0 0.00 0.05 0.00 88 1016.8
20260507064555 8 337 3.2 8.0 0.00 0.05 0.00 88 1016.8
20260507064015 8 341 3.2 6.4 0.00 0.05 0.00 89 1016.8
20260507063516 8 0 0.0 0.0 0.00 0.05 0.00 89 1016.7
20260507063034 8 0 0.0 0.0 0.00 0.05 0.00 89 1016.7
20260507062521 8 0 0.0 0.0 0.00 0.05 0.00 89 1016.8
20260507062016 8 0 0.0 0.0 0.00 0.05 0.00 89 1016.8
20260507061533 8 0 0.0 0.0 0.00 0.05 0.00 89 1016.6
20260507061016 8 0 0.0 0.0 0.00 0.05 0.00 89 1016.6
20260507060515 8 0 0.0 0.0 0.00 0.05 0.00 89 1016.5
20260507060032 8 0 0.0 1.6 0.00 0.05 0.00 89 1016.4
20260507055515 8 0 0.0 1.6 0.00 0.08 0.00 90 1016.3
20260507055016 8 0 0.0 1.6 0.00 0.08 0.00 90 1016.4
20260507054529 8 0 0.0 0.0 0.00 0.08 0.00 90 1016.4
20260507054015 8 0 0.0 0.0 0.00 0.08 0.00 90 1016.3
20260507053515 8 0 0.0 0.0 0.00 0.08 0.00 90 1016.3
20260507053031 8 0 0.0 6.4 0.00 0.08 0.00 90 1016.2
20260507052515 8 0 0.0 6.4 0.00 0.08 0.00 90 1016.2
20260507052016 8 0 0.0 6.4 0.00 0.08 0.00 90 1016.3
20260507051534 7 0 1.6 6.4 0.00 0.08 0.00 90 1016.2
20260507051015 7 344 0.0 6.4 0.00 0.08 0.00 90 1016.2
20260507050514 7 0 0.0 0.0 0.00 0.08 0.00 90 1016.2
20260507050041 7 0 0.0 0.0 0.00 0.08 0.00 90 1016.0
20260507045516 7 0 0.0 0.0 0.00 0.15 0.00 90 1016.0
20260507045019 7 0 0.0 0.0 0.00 0.15 0.00 90 1016.0
20260507044532 7 0 0.0 0.0 0.00 0.15 0.00 91 1016.0
20260507044013 7 0 0.0 0.0 0.00 0.15 0.00 91 1016.0
20260507043515 7 0 0.0 0.0 0.00 0.15 0.00 91 1015.8
20260507043033 7 0 0.0 0.0 0.00 0.15 0.00 91 1015.8
20260507042515 7 0 0.0 0.0 0.00 0.15 0.00 91 1015.8
20260507042014 7 0 0.0 4.8 0.00 0.15 0.00 90 1015.8
20260507041530 7 0 0.0 4.8 0.00 0.15 0.00 90 1015.8
20260507041014 7 0 0.0 1.6 0.00 0.15 0.00 90 1015.7
20260507040516 7 0 0.0 1.6 0.00 0.15 0.00 90 1015.6
20260507040031 7 0 0.0 0.0 0.00 0.15 0.00 90 1015.7
20260507035515 7 0 0.0 0.0 0.00 0.18 0.00 90 1015.6
20260507035014 7 0 0.0 0.0 0.00 0.18 0.00 90 1015.6
20260507034530 7 0 0.0 0.0 0.00 0.18 0.00 90 1015.6
20260507034017 7 0 0.0 0.0 0.00 0.18 0.00 90 1015.5
20260507033517 7 0 0.0 0.0 0.00 0.18 0.00 90 1015.4
20260507033032 7 0 0.0 0.0 0.00 0.18 0.00 90 1015.5
20260507032514 7 0 0.0 1.6 0.00 0.18 0.00 90 1015.5
20260507032017 7 0 0.0 1.6 0.00 0.18 0.00 90 1015.4
20260507031534 7 0 0.0 0.0 0.00 0.18 0.00 90 1015.3
20260507031015 7 0 0.0 0.0 0.00 0.18 0.00 90 1015.4
20260507030519 7 0 0.0 0.0 0.00 0.18 0.00 90 1015.4
20260507030036 7 0 0.0 0.0 0.00 0.18 0.00 90 1015.4
20260507025516 7 0 0.0 0.0 0.00 0.20 0.00 90 1015.4
20260507025015 7 0 0.0 0.0 0.00 0.20 0.00 90 1015.3
20260507024533 7 0 0.0 0.0 0.00 0.20 0.00 90 1015.3
20260507024013 7 0 0.0 0.0 0.00 0.20 0.00 90 1015.4
20260507023515 7 0 0.0 0.0 0.00 0.20 0.00 90 1015.4
20260507023030 7 0 0.0 0.0 0.00 0.20 0.00 90 1015.3
20260507022516 7 0 0.0 0.0 0.00 0.20 0.00 90 1015.2
20260507022015 7 0 0.0 0.0 0.00 0.20 0.00 90 1015.2
20260507021530 7 0 0.0 0.0 0.00 0.20 0.00 90 1015.2
20260507021016 7 0 0.0 0.0 0.00 0.20 0.00 90 1015.1
20260507020516 7 0 0.0 0.0 0.00 0.20 0.00 90 1015.0
20260507020035 7 0 0.0 0.0 0.00 0.20 0.00 90 1015.0
20260507015520 7 0 0.0 0.0 0.00 0.23 0.00 90 1014.9
20260507015015 7 0 0.0 0.0 0.00 0.23 0.00 90 1015.0
20260507014531 7 0 0.0 0.0 0.00 0.23 0.00 90 1014.9
20260507014016 7 0 0.0 0.0 0.00 0.23 0.00 90 1015.0
20260507013516 7 0 0.0 0.0 0.00 0.23 0.00 90 1014.9
20260507013031 7 0 0.0 0.0 0.00 0.23 0.00 90 1015.0
20260507012515 7 0 0.0 0.0 0.00 0.23 0.00 90 1015.0
20260507012015 7 0 0.0 0.0 0.00 0.23 0.00 90 1015.0
20260507011537 7 0 0.0 0.0 0.00 0.23 0.00 90 1015.0
20260507011015 7 0 0.0 0.0 0.00 0.23 0.00 90 1015.0
20260507010515 7 0 0.0 0.0 0.00 0.23 0.00 90 1015.0
20260507010048 7 0 0.0 0.0 0.00 0.23 0.00 90 1015.0
20260507005513 7 0 0.0 0.0 0.00 0.30 0.00 90 1014.9
20260507005017 7 0 0.0 0.0 0.00 0.30 0.00 90 1014.9
20260507004532 7 0 0.0 0.0 0.00 0.30 0.00 90 1014.9
20260507004016 7 0 0.0 0.0 0.00 0.30 0.00 90 1014.9
20260507003515 7 0 0.0 0.0 0.00 0.30 0.00 90 1014.9
20260507003032 7 0 0.0 0.0 0.00 0.30 0.00 90 1014.9
20260507002514 7 0 0.0 0.0 0.00 0.30 0.00 90 1014.9
20260507002021 7 0 0.0 0.0 0.00 0.30 0.00 90 1014.9
20260507001530 7 0 0.0 0.0 0.00 0.30 0.00 90 1014.8
20260507001014 7 0 0.0 0.0 0.00 0.30 0.00 90 1015.0
20260507000518 8 0 0.0 0.0 0.00 0.30 0.00 90 1014.9
20260507000029 8 0 0.0 0.0 0.00 0.30 0.00 90 1014.7
20260506235517 8 0 0.0 0.0 0.00 0.36 0.00 90 1014.8
20260506235014 8 0 0.0 0.0 0.00 0.36 0.00 90 1014.7
20260506234532 8 0 0.0 0.0 0.00 0.36 0.00 90 1014.8
20260506234016 8 0 0.0 0.0 0.00 0.36 0.00 90 1014.7
20260506233517 8 0 0.0 0.0 0.00 0.36 0.00 90 1014.7
20260506233030 8 0 0.0 0.0 0.00 0.36 0.00 90 1014.6
20260506232515 8 0 0.0 0.0 0.00 0.36 0.00 90 1014.6
20260506232014 8 0 0.0 0.0 0.00 0.36 0.00 90 1014.5
20260506231533 8 0 0.0 0.0 0.00 0.36 0.00 90 1014.5
20260506231017 8 0 0.0 0.0 0.00 0.36 0.00 90 1014.5
20260506230515 8 0 0.0 0.0 0.00 0.36 0.00 90 1014.5
20260506230032 8 0 0.0 0.0 0.00 0.36 0.00 89 1014.5
20260506225515 8 0 0.0 1.6 0.00 0.46 0.00 90 1014.4
20260506225015 8 0 0.0 1.6 0.00 0.46 0.00 89 1014.3
20260506224535 8 0 0.0 0.0 0.00 0.46 0.00 89 1014.2
20260506224017 8 0 0.0 0.0 0.00 0.46 0.00 89 1014.1
20260506223515 8 0 0.0 0.0 0.00 0.46 0.00 89 1014.0
20260506223032 8 0 0.0 1.6 0.00 0.46 0.00 89 1014.0
20260506222515 8 0 0.0 1.6 0.00 0.46 0.00 89 1014.1
20260506222018 8 0 0.0 1.6 0.00 0.46 0.00 89 1014.0
20260506221529 8 0 0.0 4.8 0.00 0.46 0.00 89 1014.0
20260506221014 7 0 0.0 4.8 0.00 0.46 0.00 89 1013.9
20260506220514 7 0 0.0 0.0 0.00 0.46 0.00 89 1013.9
20260506220035 7 0 0.0 0.0 0.00 0.46 0.00 89 1014.0
20260506215519 7 0 0.0 0.0 0.00 0.56 0.46 89 1014.0
20260506215016 7 0 0.0 0.0 0.00 0.56 0.46 89 1014.0
20260506214536 7 0 0.0 0.0 0.00 0.56 0.46 89 1013.9
20260506214013 7 0 0.0 0.0 0.00 0.56 0.46 89 1013.9
20260506213517 7 0 0.0 0.0 0.00 0.56 0.46 89 1013.8
20260506213029 7 0 0.0 0.0 0.00 0.56 0.46 89 1013.8
20260506212515 7 0 0.0 0.0 0.00 0.56 0.46 89 1013.7
20260506212020 7 0 0.0 0.0 0.00 0.56 0.46 89 1013.8
20260506211534 7 0 0.0 0.0 0.00 0.56 0.46 88 1013.7
20260506211016 7 0 0.0 0.0 0.00 0.56 0.46 88 1013.7
20260506210513 7 0 0.0 0.0 0.00 0.56 0.46 88 1013.6
20260506210033 7 0 0.0 1.6 0.00 0.56 0.46 88 1013.5
20260506205514 7 0 0.0 3.2 0.00 0.66 0.46 87 1013.6
20260506205015 7 0 0.0 3.2 0.00 0.66 0.46 87 1013.5
20260506204535 7 0 0.0 3.2 0.00 0.66 0.46 86 1013.5
20260506204015 7 0 0.0 4.8 0.00 0.66 0.46 86 1013.5
20260506203515 7 0 0.0 4.8 0.00 0.66 0.46 85 1013.5
20260506203033 7 0 0.0 4.8 0.00 0.66 0.46 85 1013.4
20260506202514 7 0 0.0 3.2 0.00 0.66 0.46 84 1013.5
20260506202016 8 0 0.0 3.2 0.00 0.66 0.46 84 1013.4
20260506201538 8 355 0.0 3.2 0.00 0.66 0.46 84 1013.3
20260506201016 8 0 0.0 3.2 0.00 0.66 0.46 84 1013.3
20260506200515 8 0 0.0 3.2 0.00 0.66 0.46 83 1013.3
20260506200030 8 355 0.0 3.2 0.00 0.66 0.46 83 1013.2
20260506195516 8 0 0.0 3.2 0.00 0.79 0.46 83 1013.1
20260506195015 8 355 0.0 3.2 0.00 0.79 0.46 82 1013.1
20260506194528 8 0 0.0 4.8 0.00 0.79 0.46 82 1013.0
20260506194017 8 0 0.0 4.8 0.00 0.79 0.46 81 1013.0
20260506193515 9 353 0.0 4.8 0.00 0.79 0.46 81 1012.9
20260506193031 9 353 0.0 6.4 0.00 0.79 0.46 81 1012.8
20260506192515 9 356 0.0 6.4 0.00 0.79 0.46 81 1012.7
20260506192017 10 0 0.0 3.2 0.00 0.79 0.46 80 1012.6
20260506191533 10 0 0.0 3.2 0.00 0.79 0.46 79 1012.5
20260506191013 10 0 0.0 3.2 0.00 0.79 0.46 79 1012.5
20260506190516 10 0 0.0 4.8 0.00 0.79 0.46 78 1012.4
20260506190031 10 0 0.0 11.3 0.00 0.79 0.46 77 1012.4
20260506185515 10 6 0.0 11.3 0.00 0.79 0.46 77 1012.3
20260506185017 10 43 1.6 8.0 0.00 0.79 0.46 77 1012.3
20260506184533 10 29 1.6 6.4 0.00 0.79 0.46 77 1012.2
20260506184015 10 0 0.0 6.4 0.00 0.79 0.46 77 1012.1
20260506183513 10 0 1.6 6.4 0.00 0.79 0.46 76 1012.2
20260506183032 10 23 1.6 6.4 0.00 0.79 0.46 76 1012.1
20260506182515 11 58 1.6 8.0 0.00 0.79 0.46 76 1012.0
20260506182014 11 78 1.6 9.7 0.00 0.79 0.46 76 1012.0
20260506181532 11 48 1.6 9.7 0.00 0.79 0.46 76 1011.9
20260506181016 11 71 3.2 9.7 0.00 0.79 0.46 77 1011.8
20260506180516 11 0 1.6 8.0 0.00 0.79 0.46 76 1011.7
20260506180038 11 38 1.6 12.9 0.00 0.79 0.46 76 1011.6
20260506175516 11 67 1.6 12.9 0.00 0.79 0.46 77 1011.5
20260506175017 11 0 1.6 9.7 0.00 0.79 0.46 78 1011.5
20260506174533 12 33 3.2 8.0 0.00 0.79 0.46 78 1011.4
20260506174013 12 0 0.0 4.8 0.00 0.79 0.46 78 1011.4
20260506173515 12 18 0.0 8.0 0.00 0.79 0.46 78 1011.3
20260506173031 12 0 1.6 9.7 0.00 0.79 0.46 77 1011.3
20260506172515 12 0 1.6 11.3 0.00 0.79 0.46 77 1011.2
20260506172013 12 40 1.6 11.3 0.00 0.79 0.46 77 1011.2
20260506171539 12 66 1.6 11.3 0.00 0.79 0.46 77 1011.2
20260506171015 12 0 1.6 11.3 0.00 0.79 0.46 78 1011.2
20260506170517 12 58 1.6 11.3 0.00 0.79 0.46 79 1011.1
20260506170027 12 0 0.0 4.8 0.00 0.79 0.46 79 1011.1
20260506165516 12 0 0.0 4.8 0.00 0.79 0.46 79 1011.0
20260506165015 12 326 0.0 8.0 0.00 0.79 0.46 79 1011.0
20260506164531 12 325 1.6 8.0 0.00 0.79 0.46 79 1010.9
20260506164013 12 325 3.2 6.4 0.00 0.79 0.46 78 1010.9
20260506163517 12 316 3.2 9.7 0.00 0.79 0.46 79 1010.9
20260506163035 12 335 3.2 9.7 0.00 0.79 0.46 78 1010.9
20260506162513 12 339 3.2 8.0 0.00 0.79 0.46 78 1010.8
20260506162014 12 344 1.6 8.0 0.00 0.79 0.46 78 1010.8
20260506161532 12 0 1.6 9.7 0.00 0.79 0.46 79 1010.8
20260506161013 12 0 1.6 9.7 0.00 0.79 0.46 77 1010.8
20260506160515 12 352 0.0 11.3 0.00 0.79 0.46 78 1010.9
20260506160032 12 0 0.0 11.3 0.00 0.79 0.46 77 1010.8
20260506155512 12 319 4.8 12.9 0.00 0.79 0.46 78 1010.9
20260506155016 12 341 1.6 12.9 0.00 0.79 0.46 78 1010.8
20260506154533 12 349 3.2 14.5 0.00 0.79 0.46 78 1010.8
20260506154012 12 331 6.4 14.5 0.00 0.79 0.46 78 1010.7
20260506153513 12 356 3.2 11.3 0.00 0.79 0.46 79 1010.6
20260506153031 12 313 4.8 11.3 0.00 0.79 0.46 79 1010.6
20260506152520 12 334 3.2 11.3 0.00 0.79 0.46 82 1010.7
20260506152014 12 0 1.6 11.3 0.00 0.79 0.46 82 1010.6